Weather History for KLWT - August, 2013

Change the Weather History Date:

Saturday, August 3, 2013

  Actual Average Record
Temperature  
Mean Temperature 61 °F 67 °F  
Max Temperature 72 °F 83 °F 99 °F (2001)
Min Temperature 49 °F 52 °F 33 °F (1896)
Degree Days  
Heating Degree Days 4 1  
Month to date heating degree days 8 3  
Since 1 June heating degree days 249 303  
Since 1 July heating degree days 29 76  
Cooling Degree Days 0 4  
Month to date cooling degree days 1 12  
Year to date cooling degree days 127 122  
Since 1 June cooling degree days 124 120  
Growing Degree Days 10 (Base 50)    
Moisture  
Dew Point 54 °F    
Average Humidity 79    
Maximum Humidity 100    
Minimum Humidity 57    
Precipitation  
Precipitation 0.09 in 0.05 in 1.10 in (1960)
Month to date precipitation 1.54 0.16  
Year to date precipitation 17.40 11.43  
Snow  
Snow 0.00 in - - ()
Snow Depth 0.00 in    
Sea Level Pressure  
Sea Level Pressure 30.09 in    
Wind  
Wind Speed 6 mph (ENE)    
Max Wind Speed 28 mph    
Max Gust Speed 37 mph    
Visibility 9 miles    
Events Rain    
T = Trace of Precipitation, MM = Missing Value Source: NWS Daily Summary

Daily Weather History Graph

Daily Weather History Graph

Search for Another Location

Airport or City:

Trip Planner

Search our weather history database for the weather conditions in past years. The results will help you decide how hot, cold, wet, or windy it might be!

Date:

Astronomy

Aug. 03, 2013 Rise Set
Actual Time 5:59 AM MDT 8:47 PM MDT
Civil Twilight 5:24 AM MDT 9:22 PM MDT
Nautical Twilight 4:39 AM MDT 10:06 PM MDT
Astronomical Twilight 3:46 AM MDT 10:59 PM MDT
Moon 3:09 AM MDT (8/3) 6:33 PM MDT (8/3)
Length of Visible Light 15h 57m
Length of Day
14h 47m
Waning Crescent, 9% of the Moon is Illuminated
Aug 3
Waning Crescent
Aug 6
New
Aug 14
First Quarter
Aug 20
Full
Aug 28
Last Quarter

Hourly Weather History & Observations

Time (MDT) Temp. Dew Point Humidity Pressure Visibility Wind Dir Wind Speed Gust Speed Precip Events Conditions
12:54 AM 53.1 °F 51.1 °F 93% 30.10 in 10.0 mi ESE 3.5 mph - N/A   Partly Cloudy
1:54 AM 51.1 °F 50.0 °F 96% 30.10 in 10.0 mi ESE 5.8 mph - N/A   Mostly Cloudy
2:54 AM 52.0 °F 50.0 °F 93% 30.08 in 10.0 mi Calm Calm - N/A   Overcast
3:54 AM 52.0 °F 50.0 °F 93% 30.09 in 10.0 mi Calm Calm - N/A   Overcast
4:54 AM 51.1 °F 48.9 °F 92% 30.09 in 10.0 mi SSE 3.5 mph - N/A   Mostly Cloudy
5:54 AM 48.9 °F 46.9 °F 93% 30.10 in 10.0 mi SSE 3.5 mph - N/A   Partly Cloudy
6:54 AM 50.0 °F 48.0 °F 93% 30.11 in 10.0 mi ESE 3.5 mph - N/A   Scattered Clouds
7:54 AM 54.0 °F 50.0 °F 86% 30.11 in 10.0 mi Calm Calm - N/A   Clear
8:54 AM 60.1 °F 52.0 °F 75% 30.11 in 10.0 mi Calm Calm - N/A   Clear
9:54 AM 64.0 °F 53.1 °F 67% 30.10 in 10.0 mi NE 6.9 mph - N/A   Clear
10:54 AM 66.0 °F 53.1 °F 63% 30.09 in 10.0 mi East 10.4 mph - N/A   Scattered Clouds
11:54 AM 68.0 °F 55.0 °F 63% 30.08 in 10.0 mi ENE 8.1 mph - N/A   Clear
12:54 PM 69.1 °F 55.0 °F 61% 30.06 in 10.0 mi East 15.0 mph - N/A   Scattered Clouds
1:54 PM 71.1 °F 55.9 °F 59% 30.03 in 10.0 mi East 17.3 mph 23.0 mph N/A   Clear
2:54 PM 70.0 °F 55.9 °F 61% 30.01 in 10.0 mi SE 15.0 mph - N/A   Mostly Cloudy
3:31 PM 57.2 °F 55.4 °F 94% 30.12 in 1.2 mi North 23.0 mph 36.8 mph 0.08 in Rain Heavy Rain
3:40 PM 59.0 °F 57.2 °F 94% 30.11 in 3.0 mi North 16.1 mph 31.1 mph 0.09 in Rain Light Rain
3:54 PM 62.1 °F 57.0 °F 84% 30.07 in 10.0 mi NNE 15.0 mph 21.9 mph 0.09 in   Scattered Clouds
4:39 PM 62.6 °F 57.2 °F 82% 30.15 in 10.0 mi North 10.4 mph - N/A   Overcast
4:54 PM 64.0 °F 59.0 °F 84% 30.09 in 10.0 mi North 9.2 mph - N/A   Mostly Cloudy
5:02 PM 62.6 °F 57.2 °F 82% 30.15 in 10.0 mi North 6.9 mph - N/A   Overcast
5:54 PM 66.9 °F 57.9 °F 73% 30.08 in 10.0 mi NNW 6.9 mph - N/A   Clear
6:54 PM 66.0 °F 57.0 °F 73% 30.07 in 10.0 mi North 8.1 mph - N/A   Clear
7:54 PM 64.0 °F 55.9 °F 75% 30.07 in 10.0 mi North 8.1 mph - N/A   Clear
8:54 PM 59.0 °F 57.0 °F 93% 30.07 in 10.0 mi North 6.9 mph - N/A   Clear
9:54 PM 57.0 °F 55.0 °F 93% 30.09 in 10.0 mi Calm Calm - N/A   Clear
10:54 PM 55.0 °F 54.0 °F 96% 30.09 in 10.0 mi SSE 3.5 mph - N/A   Clear
11:54 PM 54.0 °F 53.1 °F 97% 30.09 in 10.0 mi SE 3.5 mph - N/A   Clear